Dublin, Ireland

7:29 AM IST on August 21, 2017 (GMT +0100)
Dublin International

Weather History for EIDW - December, 2013

Change the Weather History Date:

Thursday, December 5, 2013

  Actual Average Record
Temperature  
Mean Temperature 43 °F -  
Max Temperature 49 °F 47 °F 55 °F (2000)
Min Temperature 37 °F 38 °F 26 °F (2010)
Degree Days  
Heating Degree Days 22    
Moisture  
Dew Point 37 °F    
Average Humidity 78    
Maximum Humidity 93    
Minimum Humidity 67    
Precipitation  
Precipitation 0.08 in 0.10 in - ()
Sea Level Pressure  
Sea Level Pressure 30.19 in    
Wind  
Wind Speed 24 mph ()    
Max Wind Speed 46 mph    
Max Gust Speed 61 mph    
Visibility 6.9 miles    
Events Rain    
Averages and records for this station are not official NWS values.
T = Trace of Precipitation, MM = Missing Value Source: Averaged Metar Reports

Daily Weather History Graph

Daily Weather History Graph

Search for Another Location

Airport or City:

Trip Planner

Search our weather history database for the weather conditions in past years. The results will help you decide how hot, cold, wet, or windy it might be!

Date:

Astronomy

Dec. 05, 2013 Rise Set
Actual Time 8:23 AM GMT 4:07 PM GMT
Civil Twilight 7:41 AM GMT 4:49 PM GMT
Nautical Twilight 6:56 AM GMT 5:34 PM GMT
Astronomical Twilight 6:14 AM GMT 6:16 PM GMT
Moon 10:21 AM GMT (12/5) 7:24 PM GMT (12/5)
Length of Visible Light 9h 08m
Length of Day
7h 44m
Waxing Crescent, 9% of the Moon is Illuminated
Dec 5
Waxing Crescent
Dec 9
First Quarter
Dec 17
Full
Dec 25
Last Quarter
Jan 1
New

Hourly Weather History & Observations

Time (GMT) Temp. Windchill Dew Point Humidity Pressure Visibility Wind Dir Wind Speed Gust Speed Precip Events Conditions
12:00 AM 42 °F - 35 °F 70% 30.41 in 16 mi WSW 17.9 mph - -   Mostly Cloudy
12:00 AM 41.0 °F 32.2 °F 35.6 °F 81% 30.39 in 6.2 mi WSW 18.4 mph - N/A   Mostly Cloudy
12:30 AM 42.8 °F 34.0 °F 35.6 °F 76% 30.36 in 6.2 mi SW 20.7 mph - N/A   Mostly Cloudy
1:00 AM 42.8 °F 33.8 °F 35.6 °F 76% 30.33 in 6.2 mi WSW 21.9 mph - N/A   Mostly Cloudy
1:30 AM 42.8 °F 33.5 °F 35.6 °F 76% 30.30 in 6.2 mi WSW 23.0 mph - N/A   Mostly Cloudy
2:00 AM 42.8 °F 33.8 °F 35.6 °F 76% 30.30 in 6.2 mi SW 21.9 mph - N/A   Mostly Cloudy
2:30 AM 42.8 °F 33.5 °F 35.6 °F 76% 30.27 in 6.2 mi SW 23.0 mph - N/A   Mostly Cloudy
3:00 AM 42.8 °F 32.9 °F 35.6 °F 76% 30.24 in 6.2 mi SW 26.5 mph - N/A   Mostly Cloudy
3:30 AM 42.8 °F 32.9 °F 37.4 °F 81% 30.21 in 6.2 mi WSW 26.5 mph - N/A   Mostly Cloudy
4:00 AM 44.6 °F 34.9 °F 37.4 °F 76% 30.18 in 6.2 mi WSW 28.8 mph - N/A   Mostly Cloudy
4:30 AM 44.6 °F 34.6 °F 37.4 °F 76% 30.15 in 6.2 mi WSW 31.1 mph 44.9 mph N/A   Mostly Cloudy
5:00 AM 44.6 °F 34.1 °F 37.4 °F 76% 30.12 in 6.2 mi WSW 34.5 mph 46.0 mph N/A   Mostly Cloudy
5:30 AM 46.4 °F 36.4 °F 37.4 °F 71% 30.09 in 6.2 mi WSW 35.7 mph 50.6 mph N/A   Mostly Cloudy
6:00 AM 46 °F - 38 °F 67% 30.09 in 19 mi WSW 35.8 mph - -   Mostly Cloudy
6:00 AM 46.4 °F 36.3 °F 39.2 °F 76% 30.06 in 6.2 mi WSW 36.8 mph 50.6 mph N/A   Mostly Cloudy
6:30 AM 46.4 °F 36.0 °F 39.2 °F 76% 30.04 in 6.2 mi WSW 39.1 mph 54.1 mph N/A   Mostly Cloudy
7:00 AM 46.4 °F 36.4 °F 39.2 °F 76% 30.04 in 6.2 mi WSW 35.7 mph - N/A   Mostly Cloudy
7:30 AM 48.2 °F - 39.2 °F 71% 30.04 in 6.2 mi WSW 40.3 mph 52.9 mph N/A   Mostly Cloudy
8:00 AM 48.2 °F - 41.0 °F 76% 30.01 in 6.2 mi West 46.0 mph 58.7 mph N/A Rain Light Rain
8:30 AM 48.2 °F - 41.0 °F 76% 30.01 in 6.2 mi WSW 43.7 mph 57.5 mph N/A   Mostly Cloudy
9:00 AM 48.2 °F - 41.0 °F 76% 30.01 in 6.2 mi WSW 42.6 mph 54.1 mph N/A   Mostly Cloudy
9:30 AM 50.0 °F - 42.8 °F 76% 30.01 in 6.2 mi WSW 43.7 mph 61.0 mph N/A   Overcast
10:00 AM 50.0 °F - 42.8 °F 76% 30.01 in 6.2 mi West 40.3 mph 52.9 mph N/A   Mostly Cloudy
10:30 AM 50.0 °F - 42.8 °F 76% 30.04 in 6.2 mi West 42.6 mph 59.8 mph N/A   Mostly Cloudy
11:00 AM 48.2 °F - 46.4 °F 93% 30.06 in 1.6 mi West 35.7 mph 48.3 mph N/A Rain Light Rain
11:30 AM 48.2 °F - 42.8 °F 82% 30.06 in 6.2 mi West 28.8 mph 40.3 mph N/A   Mostly Cloudy
12:00 PM 46 °F - 40 °F 74% 30.12 in 10 mi WNW 31.3 mph - - Rain Light Rain
12:00 PM 46.4 °F 36.4 °F 41.0 °F 81% 30.09 in 6.2 mi WNW 35.7 mph 49.5 mph N/A   Mostly Cloudy
12:30 PM 44.6 °F 34.9 °F 37.4 °F 76% 30.12 in 6.2 mi WNW 28.8 mph - N/A   Mostly Cloudy
1:00 PM 44.6 °F 35.9 °F 35.6 °F 71% 30.15 in 6.2 mi WNW 23.0 mph 34.5 mph N/A   Mostly Cloudy
1:30 PM 44.6 °F 35.5 °F 35.6 °F 71% 30.15 in 6.2 mi WNW 25.3 mph - N/A   Mostly Cloudy
2:00 PM 44.6 °F 36.1 °F 35.6 °F 71% 30.15 in 6.2 mi WNW 21.9 mph - N/A   Mostly Cloudy
2:30 PM 44.6 °F 36.4 °F 35.6 °F 71% 30.15 in 6.2 mi WNW 20.7 mph - N/A   Mostly Cloudy
3:00 PM 42.8 °F 34.0 °F 35.6 °F 76% 30.15 in 6.2 mi West 20.7 mph - N/A   Scattered Clouds
3:30 PM 44.6 °F 37.4 °F 35.6 °F 71% 30.18 in 6.2 mi West 16.1 mph - N/A   Scattered Clouds
4:00 PM 42.8 °F 33.8 °F 33.8 °F 70% 30.18 in 6.2 mi West 21.9 mph - N/A   Mostly Cloudy
4:30 PM 41.0 °F 32.2 °F 35.6 °F 81% 30.21 in 6.2 mi West 18.4 mph - N/A   Mostly Cloudy
5:00 PM 41.0 °F 32.5 °F 35.6 °F 81% 30.24 in 6.2 mi West 17.3 mph - N/A   Mostly Cloudy
5:30 PM 41.0 °F 33.1 °F 35.6 °F 81% 30.24 in 6.2 mi West 15.0 mph - N/A   Mostly Cloudy
6:00 PM 40 °F - 36 °F 79% 30.27 in 19 mi West 13.4 mph - -   Partly Cloudy
6:00 PM 39.2 °F 31.2 °F 35.6 °F 87% 30.24 in 6.2 mi West 13.8 mph - N/A   Scattered Clouds
6:30 PM 41.0 °F 33.1 °F 35.6 °F 81% 30.24 in 6.2 mi West 15.0 mph - N/A   Scattered Clouds
7:00 PM 41.0 °F 32.5 °F 35.6 °F 81% 30.24 in 6.2 mi West 17.3 mph - N/A   Scattered Clouds
7:30 PM 41.0 °F 33.5 °F 35.6 °F 81% 30.27 in 6.2 mi West 13.8 mph - N/A   Scattered Clouds
8:00 PM 41.0 °F 32.8 °F 35.6 °F 81% 30.27 in 6.2 mi WNW 16.1 mph - N/A Rain Light Rain Showers
8:30 PM 39.2 °F 29.8 °F 35.6 °F 87% 30.30 in 6.2 mi West 18.4 mph - N/A   Mostly Cloudy
9:00 PM 39.2 °F 31.2 °F 37.4 °F 93% 30.30 in 6.2 mi West 13.8 mph - N/A   Mostly Cloudy
9:30 PM 41.0 °F 33.5 °F 37.4 °F 87% 30.30 in 6.2 mi West 13.8 mph - N/A   Mostly Cloudy
10:00 PM 39.2 °F 31.6 °F 37.4 °F 93% 30.30 in 6.2 mi West 12.7 mph - N/A   Mostly Cloudy
10:30 PM 39.2 °F 30.8 °F 35.6 °F 87% 30.30 in 6.2 mi West 15.0 mph - N/A   Scattered Clouds
11:00 PM 39.2 °F 30.8 °F 35.6 °F 87% 30.30 in 6.2 mi West 15.0 mph - N/A   Scattered Clouds
11:30 PM 39.2 °F 31.2 °F 35.6 °F 87% 30.33 in 6.2 mi West 13.8 mph - N/A   Scattered Clouds